TimeEDT,TemperatureF,Dew PointF,Humidity,Sea Level PressureIn,VisibilityMPH,Wind Direction,Wind SpeedMPH,Gust SpeedMPH,PrecipitationIn,Events,Conditions,WindDirDegrees,DateUTC
12:15 AM,71.6,69.8,94,30.02,10.0,ESE,3.5,-,N/A,,Clear,120,2013-07-11 04:15:00
12:35 AM,71.6,69.8,94,30.02,10.0,Calm,Calm,-,N/A,,Clear,0,2013-07-11 04:35:00
12:53 AM,73.0,70.0,90,30.01,-9999.0,SE,3.5,-,N/A,,Unknown,130,2013-07-11 04:53:00
12:55 AM,71.6,69.8,94,30.02,10.0,SE,3.5,-,N/A,,Clear,130,2013-07-11 04:55:00
1:15 AM,71.6,69.8,94,30.02,10.0,Calm,Calm,-,N/A,,Clear,0,2013-07-11 05:15:00
1:35 AM,71.6,69.8,94,30.00,10.0,SE,3.5,-,N/A,,Clear,130,2013-07-11 05:35:00
1:53 AM,72.0,69.1,91,29.99,-9999.0,Calm,Calm,-,N/A,,Unknown,0,2013-07-11 05:53:00
1:55 AM,69.8,69.8,100,30.00,10.0,Calm,Calm,-,N/A,,Clear,0,2013-07-11 05:55:00
2:15 AM,69.8,69.8,100,30.01,10.0,Calm,Calm,-,N/A,,Clear,0,2013-07-11 06:15:00
2:35 AM,69.8,69.8,100,30.01,10.0,Calm,Calm,-,N/A,,Clear,0,2013-07-11 06:35:00
2:53 AM,72.0,69.1,91,30.00,-9999.0,Calm,Calm,-,N/A,,Unknown,0,2013-07-11 06:53:00
2:55 AM,69.8,69.8,100,30.02,10.0,Calm,Calm,-,N/A,,Clear,0,2013-07-11 06:55:00
3:15 AM,69.8,69.8,100,30.02,10.0,Calm,Calm,-,N/A,,Clear,0,2013-07-11 07:15:00
3:35 AM,69.8,68.0,94,30.02,7.0,Calm,Calm,-,N/A,,Clear,0,2013-07-11 07:35:00
3:53 AM,71.1,69.1,93,30.01,-9999.0,Calm,Calm,-,N/A,,Unknown,0,2013-07-11 07:53:00
3:55 AM,69.8,68.0,94,30.02,7.0,Calm,Calm,-,N/A,,Clear,0,2013-07-11 07:55:00
4:15 AM,69.8,68.0,94,30.02,7.0,Calm,Calm,-,N/A,,Clear,0,2013-07-11 08:15:00
4:35 AM,69.8,68.0,94,30.01,5.0,Calm,Calm,-,N/A,,Clear,0,2013-07-11 08:35:00
4:53 AM,71.1,68.0,90,29.99,-9999.0,Calm,Calm,-,N/A,,Unknown,0,2013-07-11 08:53:00
4:55 AM,69.8,68.0,94,30.01,7.0,Calm,Calm,-,N/A,,Clear,0,2013-07-11 08:55:00
5:15 AM,69.8,68.0,94,30.00,10.0,Calm,Calm,-,N/A,,Scattered Clouds,0,2013-07-11 09:15:00
5:35 AM,69.8,68.0,94,30.00,10.0,Calm,Calm,-,N/A,,Clear,0,2013-07-11 09:35:00
5:53 AM,72.0,70.0,93,29.99,-9999.0,Calm,Calm,-,N/A,,Unknown,0,2013-07-11 09:53:00
5:55 AM,69.8,69.8,100,30.00,10.0,Calm,Calm,-,N/A,,Clear,0,2013-07-11 09:55:00
6:15 AM,69.8,69.8,100,30.00,7.0,Calm,Calm,-,N/A,,Clear,0,2013-07-11 10:15:00
6:35 AM,69.8,69.8,100,30.00,7.0,Calm,Calm,-,N/A,,Clear,0,2013-07-11 10:35:00
6:53 AM,73.0,70.0,90,29.98,-9999.0,Calm,Calm,-,0.01,,Unknown,0,2013-07-11 10:53:00
6:55 AM,71.6,69.8,94,30.00,10.0,Calm,Calm,-,N/A,,Clear,0,2013-07-11 10:55:00
7:15 AM,71.6,69.8,94,30.00,10.0,Calm,Calm,-,N/A,,Clear,0,2013-07-11 11:15:00
7:35 AM,71.6,69.8,94,30.01,10.0,Calm,Calm,-,N/A,,Clear,0,2013-07-11 11:35:00
7:53 AM,75.9,72.0,87,29.99,-9999.0,Calm,Calm,-,N/A,,Unknown,0,2013-07-11 11:53:00
7:55 AM,73.4,71.6,94,30.01,10.0,Calm,Calm,-,N/A,,Clear,0,2013-07-11 11:55:00
8:15 AM,73.4,71.6,94,30.00,10.0,Calm,Calm,-,N/A,,Clear,0,2013-07-11 12:15:00
8:35 AM,75.2,73.4,94,30.00,10.0,Calm,Calm,-,N/A,,Clear,0,2013-07-11 12:35:00
8:53 AM,80.1,73.9,81,29.99,-9999.0,Calm,Calm,-,N/A,,Unknown,0,2013-07-11 12:53:00
8:55 AM,77.0,73.4,89,30.01,10.0,Calm,Calm,-,N/A,,Clear,0,2013-07-11 12:55:00
9:15 AM,77.0,73.4,89,30.01,10.0,Calm,Calm,-,N/A,,Clear,0,2013-07-11 13:15:00
9:35 AM,78.8,75.2,89,30.01,10.0,WSW,4.6,-,N/A,,Clear,240,2013-07-11 13:35:00
9:53 AM,82.9,75.0,77,29.99,-9999.0,West,3.5,-,N/A,,Unknown,260,2013-07-11 13:53:00
9:55 AM,80.6,75.2,84,30.01,10.0,West,3.5,-,N/A,,Scattered Clouds,270,2013-07-11 13:55:00
10:15 AM,82.4,73.4,74,30.00,10.0,West,3.5,-,N/A,,Scattered Clouds,260,2013-07-11 14:15:00
10:35 AM,82.4,73.4,74,30.00,10.0,West,5.8,-,N/A,,Scattered Clouds,280,2013-07-11 14:35:00
10:53 AM,86.0,72.0,63,29.99,-9999.0,Variable,5.8,-,N/A,,Unknown,0,2013-07-11 14:53:00
10:55 AM,82.4,71.6,70,30.00,10.0,West,4.6,-,N/A,,Clear,280,2013-07-11 14:55:00
11:15 AM,82.4,71.6,70,30.01,10.0,WNW,5.8,-,N/A,,Scattered Clouds,300,2013-07-11 15:15:00
11:35 AM,84.2,69.8,62,30.00,10.0,West,5.8,-,N/A,,Scattered Clouds,270,2013-07-11 15:35:00
11:53 AM,84.9,72.0,65,29.99,-9999.0,Variable,4.6,-,N/A,,Unknown,0,2013-07-11 15:53:00
11:55 AM,82.4,71.6,70,30.00,10.0,West,4.6,-,N/A,,Mostly Cloudy,260,2013-07-11 15:55:00
12:15 PM,82.4,71.6,70,30.00,10.0,West,6.9,-,N/A,,Mostly Cloudy,270,2013-07-11 16:15:00
12:35 PM,78.8,71.6,78,30.00,5.0,WSW,4.6,-,0.02,Rain,Rain,250,2013-07-11 16:35:00
12:53 PM,79.0,72.0,79,29.99,-9999.0,SSE,6.9,-,0.02,,Unknown,150,2013-07-11 16:53:00
12:55 PM,77.0,71.6,83,30.00,10.0,SSE,5.8,-,0.02,Rain,Light Rain,150,2013-07-11 16:55:00
1:15 PM,77.0,73.4,89,29.99,10.0,ESE,3.5,-,N/A,,Scattered Clouds,110,2013-07-11 17:15:00
1:35 PM,80.6,75.2,84,29.98,10.0,ESE,3.5,-,N/A,,Clear,110,2013-07-11 17:35:00
1:53 PM,87.1,73.0,63,29.96,-9999.0,SSW,6.9,-,N/A,,Unknown,200,2013-07-11 17:53:00
1:55 PM,86.0,71.6,62,29.98,10.0,SSW,6.9,-,N/A,,Scattered Clouds,210,2013-07-11 17:55:00
2:15 PM,86.0,73.4,66,29.97,10.0,SW,10.4,-,N/A,,Scattered Clouds,230,2013-07-11 18:15:00
2:35 PM,86.0,71.6,62,29.96,10.0,SW,8.1,-,N/A,,Clear,220,2013-07-11 18:35:00
2:53 PM,88.0,72.0,59,29.94,-9999.0,SSW,8.1,-,N/A,,Unknown,200,2013-07-11 18:53:00
2:55 PM,86.0,69.8,58,29.96,10.0,SSW,5.8,-,N/A,,Scattered Clouds,210,2013-07-11 18:55:00
3:15 PM,86.0,69.8,58,29.96,10.0,WSW,8.1,-,N/A,,Scattered Clouds,240,2013-07-11 19:15:00
3:35 PM,86.0,71.6,62,29.95,10.0,WSW,10.4,17.3,N/A,,Scattered Clouds,250,2013-07-11 19:35:00
3:53 PM,88.0,73.0,61,29.93,-9999.0,WSW,12.7,-,N/A,,Unknown,240,2013-07-11 19:53:00
3:55 PM,86.0,71.6,62,29.95,10.0,WSW,10.4,18.4,N/A,,Scattered Clouds,240,2013-07-11 19:55:00
4:15 PM,86.0,71.6,62,29.94,10.0,SW,12.7,17.3,N/A,,Scattered Clouds,230,2013-07-11 20:15:00
4:35 PM,86.0,71.6,62,29.93,10.0,SW,10.4,18.4,N/A,,Scattered Clouds,230,2013-07-11 20:35:00
4:53 PM,86.0,72.0,63,29.92,-9999.0,WSW,12.7,-,N/A,,Unknown,240,2013-07-11 20:53:00
4:55 PM,84.2,71.6,66,29.94,10.0,WSW,9.2,-,N/A,,Scattered Clouds,250,2013-07-11 20:55:00
5:15 PM,86.0,71.6,62,29.93,10.0,SW,12.7,17.3,N/A,,Scattered Clouds,230,2013-07-11 21:15:00
5:35 PM,86.0,71.6,62,29.93,10.0,WSW,10.4,-,N/A,,Scattered Clouds,250,2013-07-11 21:35:00
5:53 PM,86.0,71.1,61,29.91,-9999.0,SW,9.2,-,N/A,,Unknown,230,2013-07-11 21:53:00
5:55 PM,86.0,69.8,58,29.92,10.0,WSW,9.2,-,N/A,,Scattered Clouds,240,2013-07-11 21:55:00
6:15 PM,82.4,69.8,66,29.92,10.0,WSW,8.1,-,N/A,,Clear,250,2013-07-11 22:15:00
6:35 PM,82.4,69.8,66,29.92,10.0,SW,9.2,-,N/A,,Clear,230,2013-07-11 22:35:00
6:53 PM,82.9,71.1,67,29.91,-9999.0,SW,5.8,-,N/A,,Unknown,220,2013-07-11 22:53:00
6:55 PM,80.6,69.8,70,29.92,10.0,SW,5.8,-,N/A,,Clear,220,2013-07-11 22:55:00
7:15 PM,80.6,69.8,70,29.92,10.0,SSW,3.5,-,N/A,,Clear,200,2013-07-11 23:15:00
7:35 PM,80.6,71.6,74,29.91,10.0,South,4.6,-,N/A,,Clear,180,2013-07-11 23:35:00
7:53 PM,82.9,72.0,69,29.89,-9999.0,SSW,4.6,-,N/A,,Unknown,210,2013-07-11 23:53:00
7:55 PM,80.6,71.6,74,29.90,10.0,SSW,4.6,-,N/A,,Clear,210,2013-07-11 23:55:00
8:15 PM,80.6,71.6,74,29.91,10.0,SSE,3.5,-,N/A,,Clear,160,2013-07-12 00:15:00
8:35 PM,78.8,71.6,78,29.91,10.0,SSE,4.6,-,N/A,,Clear,160,2013-07-12 00:35:00
8:53 PM,80.1,73.0,79,29.91,-9999.0,South,5.8,-,0.01,,Unknown,170,2013-07-12 00:53:00
8:55 PM,78.8,71.6,78,29.92,3.0,South,4.6,-,N/A,,Haze,180,2013-07-12 00:55:00
9:15 PM,78.8,71.6,78,29.93,10.0,South,4.6,-,N/A,,Scattered Clouds,190,2013-07-12 01:15:00
9:35 PM,77.0,71.6,83,29.93,10.0,SW,3.5,-,N/A,,Scattered Clouds,220,2013-07-12 01:35:00
9:53 PM,78.1,73.0,84,29.92,-9999.0,West,5.8,-,N/A,,Unknown,280,2013-07-12 01:53:00
9:55 PM,77.0,71.6,83,29.93,10.0,WNW,5.8,-,N/A,,Clear,290,2013-07-12 01:55:00
10:15 PM,77.0,71.6,83,29.93,10.0,WNW,5.8,-,N/A,,Clear,300,2013-07-12 02:15:00
10:35 PM,75.2,71.6,89,29.94,10.0,NW,4.6,-,N/A,,Clear,310,2013-07-12 02:35:00
10:53 PM,77.0,73.0,88,29.93,-9999.0,Calm,Calm,-,N/A,,Unknown,0,2013-07-12 02:53:00
10:55 PM,75.2,71.6,89,29.94,10.0,Calm,Calm,-,N/A,,Clear,0,2013-07-12 02:55:00
11:15 PM,75.2,71.6,89,29.95,10.0,Calm,Calm,-,N/A,,Clear,0,2013-07-12 03:15:00
11:35 PM,75.2,71.6,89,29.95,10.0,Calm,Calm,-,N/A,,Clear,0,2013-07-12 03:35:00
11:53 PM,75.9,73.0,91,29.94,-9999.0,Calm,Calm,-,N/A,,Unknown,0,2013-07-12 03:53:00
11:55 PM,73.4,71.6,94,29.95,10.0,Calm,Calm,-,N/A,,Clear,0,2013-07-12 03:55:00